| time (UTC) | temp C | wind direction | speed KPH | gust KPH | rain 1hr cm | rain 24hr cm | rain mn cm | humidity % | barometer mb |
| 20260906023311 | 13 | 261 | 6.4 | 8.0 | 0.00 | 0.61 | 0.00 | 79 | 1026.6 |
| 20260906022311 | 13 | 248 | 3.2 | 4.8 | 0.00 | 0.61 | 0.00 | 80 | 1026.6 |
| 20260906021311 | 13 | 258 | 4.8 | 6.4 | 0.00 | 0.61 | 0.00 | 80 | 1026.4 |
| 20260906020311 | 13 | 250 | 3.2 | 6.4 | 0.00 | 0.61 | 0.00 | 80 | 1026.2 |
| 20260906015311 | 13 | 259 | 3.2 | 8.0 | 0.00 | 0.61 | 0.00 | 80 | 1026.2 |
| 20260906014311 | 13 | 251 | 4.8 | 6.4 | 0.00 | 0.61 | 0.00 | 79 | 1026.3 |
| 20260906013311 | 14 | 242 | 4.8 | 6.4 | 0.00 | 0.61 | 0.00 | 77 | 1026.4 |
| 20260906012310 | 14 | 259 | 6.4 | 8.0 | 0.00 | 0.61 | 0.00 | 76 | 1026.4 |
| 20260906011310 | 15 | 237 | 4.8 | 9.7 | 0.00 | 0.61 | 0.00 | 76 | 1026.4 |
| 20260906010310 | 14 | 256 | 4.8 | 8.0 | 0.00 | 0.61 | 0.00 | 77 | 1026.4 |
| 20260906005310 | 15 | 266 | 4.8 | 9.7 | 0.00 | 0.61 | 0.00 | 76 | 1026.4 |
| 20260906004310 | 15 | 234 | 4.8 | 6.4 | 0.00 | 0.61 | 0.00 | 76 | 1026.2 |
| 20260906003310 | 15 | 241 | 4.8 | 6.4 | 0.00 | 0.61 | 0.00 | 76 | 1026.2 |
| 20260906002310 | 15 | 227 | 4.8 | 6.4 | 0.00 | 0.61 | 0.00 | 75 | 1026.1 |
| 20260906001310 | 15 | 211 | 4.8 | 6.4 | 0.00 | 0.61 | 0.00 | 75 | 1026.1 |
| 20260906000311 | 15 | 220 | 4.8 | 8.0 | 0.00 | 0.61 | 0.00 | 74 | 1026.0 |
| 20260905235310 | 15 | 205 | 4.8 | 6.4 | 0.00 | 0.61 | 0.00 | 72 | 1025.9 |
| 20260905234310 | 15 | 244 | 4.8 | 6.4 | 0.00 | 0.61 | 0.00 | 74 | 1025.8 |
| 20260905233311 | 16 | 209 | 3.2 | 6.4 | 0.00 | 0.61 | 0.00 | 73 | 1025.9 |
| 20260905232310 | 16 | 213 | 3.2 | 8.0 | 0.00 | 0.61 | 0.00 | 72 | 1025.9 |
| 20260905231310 | 16 | 227 | 4.8 | 8.0 | 0.00 | 0.61 | 0.00 | 72 | 1025.8 |
| 20260905230310 | 16 | 227 | 4.8 | 9.7 | 0.00 | 0.61 | 0.00 | 71 | 1025.8 |
| 20260905225310 | 16 | 186 | 4.8 | 9.7 | 0.00 | 0.61 | 0.00 | 74 | 1025.6 |
| 20260905224310 | 16 | 208 | 4.8 | 6.4 | 0.00 | 0.61 | 0.00 | 74 | 1025.5 |
| 20260905223310 | 16 | 189 | 4.8 | 6.4 | 0.00 | 0.61 | 0.00 | 75 | 1025.5 |
| 20260905222309 | 16 | 196 | 3.2 | 6.4 | 0.00 | 0.61 | 0.00 | 75 | 1025.4 |
| 20260905221309 | 17 | 199 | 6.4 | 11.3 | 0.00 | 0.61 | 0.00 | 73 | 1025.3 |
| 20260905220309 | 17 | 219 | 3.2 | 8.0 | 0.00 | 0.61 | 0.00 | 74 | 1025.3 |
| 20260905215310 | 17 | 229 | 3.2 | 4.8 | 0.00 | 0.61 | 0.61 | 75 | 1025.2 |
| 20260905214310 | 17 | 218 | 0.0 | 4.8 | 0.00 | 0.61 | 0.61 | 77 | 1025.0 |
| 20260905213310 | 17 | 239 | 0.0 | 4.8 | 0.00 | 0.61 | 0.61 | 78 | 1025.0 |
| 20260905212310 | 17 | 237 | 3.2 | 8.0 | 0.00 | 0.61 | 0.61 | 78 | 1024.8 |
| 20260905211310 | 17 | 261 | 4.8 | 11.3 | 0.00 | 0.61 | 0.61 | 78 | 1024.5 |
| 20260905210310 | 17 | 284 | 3.2 | 9.7 | 0.00 | 0.61 | 0.61 | 79 | 1024.4 |
| 20260905205310 | 18 | 258 | 4.8 | 11.3 | 0.00 | 0.61 | 0.61 | 78 | 1024.4 |
| 20260905204310 | 18 | 255 | 9.7 | 14.5 | 0.00 | 0.61 | 0.61 | 77 | 1024.4 |
| 20260905203309 | 18 | 263 | 4.8 | 9.7 | 0.00 | 0.61 | 0.61 | 77 | 1024.3 |
| 20260905202309 | 18 | 253 | 0.0 | 14.5 | 0.00 | 0.61 | 0.61 | 76 | 1024.0 |
| 20260905201310 | 18 | 250 | 6.4 | 11.3 | 0.00 | 0.61 | 0.61 | 76 | 1023.9 |
| 20260905200310 | 18 | 221 | 4.8 | 14.5 | 0.00 | 0.61 | 0.61 | 76 | 1023.9 |
| 20260905195309 | 18 | 217 | 8.0 | 12.9 | 0.00 | 0.61 | 0.61 | 76 | 1023.7 |
| 20260905194309 | 18 | 197 | 8.0 | 12.9 | 0.00 | 0.61 | 0.61 | 75 | 1023.7 |
| 20260905193309 | 18 | 199 | 4.8 | 14.5 | 0.00 | 0.61 | 0.61 | 75 | 1023.7 |
| 20260905192309 | 18 | 199 | 3.2 | 11.3 | 0.00 | 0.61 | 0.61 | 73 | 1023.4 |
| 20260905191309 | 18 | 228 | 11.3 | 19.3 | 0.00 | 0.61 | 0.61 | 73 | 1023.3 |
| 20260905190309 | 18 | 213 | 8.0 | 16.1 | 0.00 | 0.61 | 0.61 | 73 | 1023.3 |
| 20260905185315 | 18 | 202 | 9.7 | 17.7 | 0.00 | 0.61 | 0.61 | 72 | 1023.3 |
| 20260905184315 | 17 | 205 | 8.0 | 17.7 | 0.00 | 0.61 | 0.61 | 71 | 1023.1 |
| 20260905183315 | 17 | 167 | 9.7 | 16.1 | 0.00 | 0.61 | 0.61 | 71 | 1023.0 |
| 20260905182315 | 17 | 204 | 11.3 | 16.1 | 0.00 | 0.61 | 0.61 | 70 | 1022.8 |
| 20260905181315 | 18 | 203 | 12.9 | 19.3 | 0.00 | 0.61 | 0.61 | 69 | 1022.8 |
| 20260905180315 | 18 | 194 | 12.9 | 16.1 | 0.00 | 0.61 | 0.61 | 68 | 1022.7 |
| 20260905175315 | 18 | 229 | 9.7 | 14.5 | 0.00 | 0.61 | 0.61 | 67 | 1022.8 |
| 20260905174315 | 18 | 226 | 6.4 | 17.7 | 0.00 | 0.61 | 0.61 | 66 | 1022.8 |
| 20260905173315 | 18 | 200 | 9.7 | 16.1 | 0.00 | 0.61 | 0.61 | 65 | 1022.8 |
| 20260905172315 | 18 | 219 | 8.0 | 20.9 | 0.00 | 0.61 | 0.61 | 65 | 1022.6 |
| 20260905171315 | 19 | 213 | 11.3 | 17.7 | 0.00 | 0.61 | 0.61 | 65 | 1022.6 |
| 20260905170315 | 19 | 206 | 8.0 | 17.7 | 0.00 | 0.61 | 0.61 | 64 | 1022.6 |
| 20260905165314 | 20 | 195 | 9.7 | 17.7 | 0.00 | 0.61 | 0.61 | 63 | 1022.8 |
| 20260905164314 | 20 | 208 | 8.0 | 16.1 | 0.00 | 0.61 | 0.61 | 61 | 1022.6 |
| 20260905163315 | 20 | 196 | 11.3 | 19.3 | 0.00 | 0.61 | 0.61 | 61 | 1022.7 |
| 20260905162314 | 20 | 202 | 12.9 | 17.7 | 0.00 | 0.61 | 0.61 | 60 | 1022.7 |
| 20260905161315 | 20 | 251 | 14.5 | 24.1 | 0.00 | 0.61 | 0.61 | 60 | 1022.9 |
| 20260905160314 | 20 | 241 | 9.7 | 20.9 | 0.00 | 0.61 | 0.61 | 60 | 1022.8 |
| 20260905155315 | 20 | 188 | 11.3 | 17.7 | 0.00 | 0.61 | 0.61 | 61 | 1022.8 |
| 20260905154314 | 20 | 200 | 9.7 | 17.7 | 0.00 | 0.61 | 0.61 | 61 | 1022.7 |
| 20260905153314 | 20 | 231 | 6.4 | 16.1 | 0.00 | 0.61 | 0.61 | 63 | 1023.0 |
| 20260905152314 | 20 | 209 | 11.3 | 17.7 | 0.00 | 0.61 | 0.61 | 64 | 1023.1 |
| 20260905151314 | 20 | 219 | 4.8 | 19.3 | 0.00 | 0.61 | 0.61 | 64 | 1023.1 |
| 20260905150314 | 20 | 223 | 11.3 | 19.3 | 0.00 | 0.61 | 0.61 | 65 | 1023.0 |
| 20260905145314 | 20 | 205 | 9.7 | 20.9 | 0.00 | 0.61 | 0.61 | 66 | 1022.9 |
| 20260905144314 | 20 | 262 | 16.1 | 25.7 | 0.00 | 0.61 | 0.61 | 65 | 1023.0 |
| 20260905143314 | 20 | 190 | 12.9 | 25.7 | 0.00 | 0.61 | 0.61 | 65 | 1023.0 |
| 20260905142314 | 20 | 263 | 17.7 | 25.7 | 0.00 | 0.61 | 0.61 | 65 | 1023.2 |
| 20260905141314 | 20 | 257 | 11.3 | 20.9 | 0.00 | 0.61 | 0.61 | 66 | 1023.1 |
| 20260905140314 | 19 | 240 | 11.3 | 25.7 | 0.00 | 0.61 | 0.61 | 66 | 1023.1 |
| 20260905135315 | 19 | 227 | 6.4 | 20.9 | 0.00 | 0.61 | 0.61 | 68 | 1023.3 |
| 20260905134314 | 19 | 261 | 11.3 | 27.4 | 0.00 | 0.61 | 0.61 | 66 | 1023.3 |
| 20260905133314 | 19 | 266 | 9.7 | 22.5 | 0.00 | 0.61 | 0.61 | 67 | 1023.2 |
| 20260905132314 | 20 | 227 | 9.7 | 19.3 | 0.00 | 0.61 | 0.61 | 65 | 1023.2 |
| 20260905131314 | 20 | 238 | 12.9 | 20.9 | 0.00 | 0.61 | 0.61 | 63 | 1022.9 |
| 20260905130314 | 20 | 267 | 14.5 | 22.5 | 0.00 | 0.61 | 0.61 | 64 | 1023.0 |
| 20260905125314 | 20 | 242 | 12.9 | 22.5 | 0.00 | 0.61 | 0.61 | 64 | 1023.1 |
| 20260905124314 | 19 | 254 | 14.5 | 25.7 | 0.00 | 0.61 | 0.61 | 64 | 1023.1 |
| 20260905123313 | 20 | 272 | 12.9 | 19.3 | 0.00 | 0.61 | 0.61 | 65 | 1023.4 |
| 20260905122313 | 19 | 224 | 16.1 | 24.1 | 0.00 | 0.61 | 0.61 | 67 | 1023.2 |
| 20260905121314 | 19 | 266 | 9.7 | 20.9 | 0.00 | 0.61 | 0.61 | 68 | 1023.4 |
| 20260905120313 | 18 | 283 | 12.9 | 17.7 | 0.00 | 0.61 | 0.61 | 68 | 1023.2 |
| 20260905115313 | 18 | 245 | 6.4 | 16.1 | 0.00 | 0.61 | 0.61 | 71 | 1023.3 |
| 20260905114314 | 18 | 273 | 9.7 | 19.3 | 0.00 | 0.61 | 0.61 | 71 | 1023.3 |
| 20260905113313 | 18 | 227 | 8.0 | 14.5 | 0.00 | 0.61 | 0.61 | 72 | 1023.4 |
| 20260905112313 | 18 | 271 | 14.5 | 24.1 | 0.00 | 0.61 | 0.61 | 70 | 1023.4 |
| 20260905111313 | 18 | 295 | 6.4 | 24.1 | 0.00 | 0.61 | 0.61 | 72 | 1023.3 |
| 20260905110313 | 18 | 208 | 9.7 | 17.7 | 0.00 | 0.61 | 0.61 | 71 | 1023.3 |
| 20260905105313 | 18 | 257 | 16.1 | 19.3 | 0.00 | 0.61 | 0.61 | 71 | 1023.3 |
| 20260905104314 | 18 | 223 | 11.3 | 16.1 | 0.00 | 0.61 | 0.61 | 72 | 1023.1 |
| 20260905103313 | 18 | 240 | 14.5 | 19.3 | 0.00 | 0.61 | 0.61 | 73 | 1023.0 |
| 20260905102313 | 17 | 180 | 6.4 | 11.3 | 0.00 | 0.61 | 0.61 | 77 | 1022.9 |
| 20260905101313 | 17 | 204 | 8.0 | 11.3 | 0.00 | 0.61 | 0.61 | 78 | 1022.9 |
| 20260905100313 | 17 | 238 | 6.4 | 9.7 | 0.00 | 0.61 | 0.61 | 78 | 1023.1 |
| 20260905095313 | 17 | 206 | 4.8 | 9.7 | 0.00 | 0.61 | 0.61 | 80 | 1022.9 |
| 20260905094313 | 16 | 251 | 8.0 | 14.5 | 0.00 | 0.61 | 0.61 | 80 | 1022.8 |
| 20260905093313 | 16 | 204 | 9.7 | 17.7 | 0.00 | 0.61 | 0.61 | 83 | 1022.8 |
| 20260905092313 | 15 | 180 | 9.7 | 16.1 | 0.00 | 0.61 | 0.61 | 85 | 1022.6 |
| 20260905091313 | 15 | 177 | 8.0 | 17.7 | 0.00 | 0.61 | 0.61 | 85 | 1022.6 |
| 20260905090313 | 14 | 217 | 8.0 | 19.3 | 0.00 | 0.61 | 0.61 | 85 | 1022.5 |
| 20260905085313 | 14 | 186 | 12.9 | 20.9 | 0.00 | 0.61 | 0.61 | 86 | 1022.2 |
| 20260905084313 | 14 | 163 | 9.7 | 17.7 | 0.00 | 0.61 | 0.61 | 86 | 1022.2 |
| 20260905083313 | 14 | 200 | 6.4 | 17.7 | 0.00 | 0.61 | 0.61 | 87 | 1022.3 |
| 20260905082312 | 13 | 242 | 11.3 | 17.7 | 0.00 | 0.61 | 0.61 | 87 | 1022.3 |
| 20260905081312 | 13 | 200 | 9.7 | 19.3 | 0.03 | 0.61 | 0.61 | 88 | 1022.3 |
| 20260905080313 | 13 | 221 | 9.7 | 14.5 | 0.05 | 0.61 | 0.61 | 88 | 1022.3 |
| 20260905075313 | 13 | 167 | 11.3 | 19.3 | 0.13 | 0.61 | 0.61 | 88 | 1022.3 |
| 20260905074313 | 13 | 209 | 14.5 | 20.9 | 0.15 | 0.61 | 0.61 | 88 | 1021.9 |
| 20260905073312 | 13 | 173 | 12.9 | 27.4 | 0.23 | 0.61 | 0.61 | 89 | 1021.8 |
| 20260905072312 | 13 | 184 | 12.9 | 17.7 | 0.23 | 0.61 | 0.61 | 89 | 1021.7 |
| 20260905071312 | 13 | 188 | 9.7 | 20.9 | 0.25 | 0.58 | 0.58 | 88 | 1021.8 |
| 20260905070312 | 13 | 171 | 9.7 | 14.5 | 0.30 | 0.56 | 0.56 | 88 | 1021.7 |
| 20260905065312 | 13 | 174 | 6.4 | 17.7 | 0.30 | 0.48 | 0.48 | 88 | 1021.5 |
| 20260905064313 | 13 | 154 | 8.0 | 11.3 | 0.33 | 0.43 | 0.43 | 87 | 1021.4 |
| 20260905063312 | 13 | 232 | 9.7 | 14.5 | 0.36 | 0.38 | 0.38 | 86 | 1021.8 |
| 20260905062312 | 13 | 224 | 8.0 | 12.9 | 0.36 | 0.38 | 0.38 | 86 | 1021.6 |
| 20260905061312 | 13 | 255 | 8.0 | 11.3 | 0.30 | 0.33 | 0.33 | 84 | 1021.7 |
| 20260905060312 | 14 | 269 | 6.4 | 9.7 | 0.23 | 0.25 | 0.25 | 82 | 1021.8 |
| 20260905055311 | 15 | 300 | 8.0 | 19.3 | 0.15 | 0.18 | 0.18 | 79 | 1022.1 |
| 20260905054312 | 16 | 340 | 11.3 | 22.5 | 0.08 | 0.10 | 0.10 | 74 | 1021.8 |
| 20260905053312 | 16 | 335 | 11.3 | 20.9 | 0.00 | 0.03 | 0.03 | 69 | 1021.4 |
| 20260905052312 | 17 | 313 | 9.7 | 27.4 | 0.00 | 0.03 | 0.03 | 67 | 1021.1 |
| 20260905051312 | 17 | 341 | 19.3 | 33.8 | 0.03 | 0.03 | 0.03 | 65 | 1020.7 |
| 20260905050312 | 17 | 328 | 11.3 | 19.3 | 0.03 | 0.03 | 0.03 | 65 | 1020.8 |
| 20260905045311 | 18 | 324 | 11.3 | 17.7 | 0.03 | 0.03 | 0.03 | 65 | 1020.6 |
| 20260905044311 | 18 | 320 | 14.5 | 24.1 | 0.03 | 0.03 | 0.03 | 65 | 1020.4 |
| 20260905043311 | 18 | 294 | 6.4 | 25.7 | 0.03 | 0.03 | 0.03 | 66 | 1020.5 |
| 20260905042312 | 18 | 282 | 9.7 | 20.9 | 0.03 | 0.03 | 0.03 | 66 | 1020.1 |
| 20260905041312 | 19 | 329 | 11.3 | 24.1 | 0.00 | 0.00 | 0.00 | 61 | 1019.5 |
| 20260905040312 | 19 | 304 | 11.3 | 30.6 | 0.00 | 0.00 | 0.00 | 60 | 1019.4 |
| 20260905035311 | 20 | 305 | 16.1 | 27.4 | 0.00 | 0.00 | 0.00 | 61 | 1018.9 |
| 20260905034311 | 20 | 313 | 11.3 | 25.7 | 0.00 | 0.00 | 0.00 | 61 | 1018.7 |
| 20260905033311 | 21 | 318 | 17.7 | 29.0 | 0.00 | 0.00 | 0.00 | 60 | 1018.4 |
| 20260905032311 | 22 | 274 | 24.1 | 32.2 | 0.00 | 0.00 | 0.00 | 60 | 1018.3 |
| 20260905031311 | 22 | 243 | 9.7 | 14.5 | 0.00 | 0.00 | 0.00 | 59 | 1018.0 |
| 20260905030311 | 22 | 252 | 6.4 | 17.7 | 0.00 | 0.00 | 0.00 | 59 | 1018.0 |
| 20260905025311 | 22 | 242 | 12.9 | 17.7 | 0.00 | 0.00 | 0.00 | 59 | 1017.9 |
| 20260905024311 | 23 | 246 | 11.3 | 19.3 | 0.00 | 0.00 | 0.00 | 58 | 1017.9 |